TimeCDT,TemperatureF,Dew PointF,Humidity,Sea Level PressureIn,VisibilityMPH,Wind Direction,Wind SpeedMPH,Gust SpeedMPH,PrecipitationIn,Events,Conditions,WindDirDegrees,DateUTC
12:12 AM,68.0,57.2,68,29.87,10.0,North,9.2,-,N/A,,Clear,10,2013-06-29 05:12:00
12:32 AM,68.0,57.2,68,29.87,10.0,North,9.2,-,N/A,,Clear,360,2013-06-29 05:32:00
12:53 AM,66.2,57.2,73,29.87,10.0,North,10.4,-,N/A,,Clear,360,2013-06-29 05:53:00
1:12 AM,66.2,57.2,73,29.86,10.0,North,11.5,16.1,N/A,,Clear,360,2013-06-29 06:12:00
1:32 AM,66.2,57.2,73,29.86,10.0,North,10.4,-,N/A,,Clear,360,2013-06-29 06:32:00
1:53 AM,64.4,57.2,77,29.86,10.0,North,10.4,-,N/A,,Clear,360,2013-06-29 06:53:00
2:12 AM,64.4,57.2,77,29.86,10.0,North,11.5,17.3,N/A,,Clear,360,2013-06-29 07:12:00
2:33 AM,64.4,57.2,77,29.86,10.0,North,10.4,-,N/A,,Clear,360,2013-06-29 07:33:00
2:53 AM,64.4,57.2,77,29.86,10.0,North,9.2,-,N/A,,Clear,10,2013-06-29 07:53:00
3:12 AM,64.4,59.0,83,29.86,10.0,North,9.2,-,N/A,,Clear,360,2013-06-29 08:12:00
3:33 AM,62.6,59.0,88,29.86,10.0,North,8.1,-,N/A,,Clear,360,2013-06-29 08:33:00
3:53 AM,62.6,59.0,88,29.87,10.0,North,9.2,-,N/A,,Clear,360,2013-06-29 08:53:00
4:12 AM,62.6,59.0,88,29.87,10.0,North,10.4,-,N/A,,Scattered Clouds,360,2013-06-29 09:12:00
4:33 AM,62.6,59.0,88,29.87,10.0,North,9.2,-,N/A,,Clear,360,2013-06-29 09:33:00
4:52 AM,60.8,59.0,94,29.87,10.0,North,9.2,-,N/A,,Clear,360,2013-06-29 09:52:00
5:12 AM,60.8,59.0,94,29.88,10.0,North,11.5,-,N/A,,Clear,360,2013-06-29 10:12:00
5:33 AM,60.8,59.0,94,29.89,10.0,North,9.2,-,N/A,,Scattered Clouds,360,2013-06-29 10:33:00
5:52 AM,60.8,59.0,94,29.89,10.0,North,10.4,-,N/A,,Clear,360,2013-06-29 10:52:00
6:12 AM,60.8,59.0,94,29.90,10.0,North,11.5,-,N/A,,Clear,360,2013-06-29 11:12:00
6:33 AM,62.6,60.8,94,29.91,10.0,North,11.5,-,N/A,,Clear,360,2013-06-29 11:33:00
6:52 AM,62.6,60.8,94,29.91,10.0,North,11.5,-,N/A,,Clear,10,2013-06-29 11:52:00
7:12 AM,62.6,60.8,94,29.92,10.0,North,12.7,-,N/A,,Scattered Clouds,10,2013-06-29 12:12:00
7:33 AM,64.4,60.8,88,29.92,10.0,North,12.7,18.4,N/A,,Scattered Clouds,10,2013-06-29 12:33:00
7:52 AM,66.2,60.8,83,29.93,10.0,NNE,10.4,16.1,N/A,,Mostly Cloudy,30,2013-06-29 12:52:00
8:13 AM,68.0,60.8,78,29.94,10.0,NE,16.1,20.7,N/A,,Mostly Cloudy,40,2013-06-29 13:13:00
8:33 AM,66.2,59.0,78,29.94,10.0,NNE,16.1,20.7,N/A,,Mostly Cloudy,30,2013-06-29 13:33:00
8:52 AM,69.8,60.8,73,29.95,10.0,NNE,15.0,19.6,N/A,,Scattered Clouds,30,2013-06-29 13:52:00
9:13 AM,69.8,59.0,68,29.95,10.0,NNE,15.0,20.7,N/A,,Scattered Clouds,30,2013-06-29 14:13:00
9:33 AM,69.8,59.0,68,29.95,10.0,NNE,12.7,20.7,N/A,,Scattered Clouds,30,2013-06-29 14:33:00
9:52 AM,69.8,59.0,68,29.95,10.0,NNE,9.2,19.6,N/A,,Scattered Clouds,30,2013-06-29 14:52:00
10:13 AM,69.8,59.0,68,29.96,10.0,NNE,11.5,-,N/A,,Light Drizzle,30,2013-06-29 15:13:00
10:33 AM,71.6,59.0,64,29.96,10.0,NNE,11.5,17.3,N/A,,Light Drizzle,30,2013-06-29 15:33:00
10:52 AM,71.6,60.8,69,29.96,10.0,NNE,9.2,-,N/A,,Scattered Clouds,30,2013-06-29 15:52:00
11:13 AM,73.4,60.8,65,29.96,10.0,NNE,11.5,17.3,N/A,,Clear,30,2013-06-29 16:13:00
11:33 AM,75.2,60.8,61,29.96,10.0,North,10.4,-,N/A,,Clear,10,2013-06-29 16:33:00
11:52 AM,75.2,59.0,57,29.95,10.0,North,11.5,16.1,N/A,,Clear,360,2013-06-29 16:52:00
12:13 PM,75.2,59.0,57,29.96,10.0,NNE,12.7,17.3,N/A,,Clear,20,2013-06-29 17:13:00
12:32 PM,77.0,57.2,50,29.95,10.0,NNE,13.8,18.4,N/A,,Scattered Clouds,20,2013-06-29 17:32:00
12:52 PM,78.8,57.2,47,29.95,10.0,NNE,12.7,19.6,N/A,,Scattered Clouds,30,2013-06-29 17:52:00
1:13 PM,77.0,55.4,47,29.96,10.0,NE,15.0,20.7,N/A,,Mostly Cloudy,40,2013-06-29 18:13:00
1:32 PM,77.0,57.2,50,29.95,10.0,NNE,13.8,20.7,N/A,,Mostly Cloudy,30,2013-06-29 18:32:00
1:52 PM,78.8,55.4,44,29.95,10.0,NNE,12.7,21.9,N/A,,Scattered Clouds,20,2013-06-29 18:52:00
2:12 PM,78.8,55.4,44,29.95,10.0,North,11.5,20.7,N/A,,Clear,10,2013-06-29 19:12:00
2:32 PM,78.8,53.6,42,29.94,10.0,NNE,10.4,18.4,N/A,,Scattered Clouds,30,2013-06-29 19:32:00
2:53 PM,78.8,53.6,42,29.95,10.0,NE,13.8,21.9,N/A,,Mostly Cloudy,50,2013-06-29 19:53:00
3:12 PM,80.6,51.8,37,29.95,10.0,ENE,11.5,21.9,N/A,,Scattered Clouds,60,2013-06-29 20:12:00
3:33 PM,78.8,53.6,42,29.95,10.0,NE,12.7,18.4,N/A,,Scattered Clouds,50,2013-06-29 20:33:00
3:53 PM,80.6,53.6,39,29.95,10.0,NE,12.7,19.6,N/A,,Clear,50,2013-06-29 20:53:00
4:12 PM,80.6,53.6,39,29.95,10.0,NE,11.5,16.1,N/A,,Clear,50,2013-06-29 21:12:00
4:33 PM,80.6,53.6,39,29.95,10.0,ENE,15.0,18.4,N/A,,Scattered Clouds,60,2013-06-29 21:33:00
4:53 PM,80.6,53.6,39,29.95,10.0,NE,9.2,23.0,N/A,,Scattered Clouds,50,2013-06-29 21:53:00
5:12 PM,78.8,53.6,42,29.95,10.0,NE,13.8,19.6,N/A,,Scattered Clouds,50,2013-06-29 22:12:00
5:33 PM,80.6,53.6,39,29.95,10.0,NE,13.8,-,N/A,,Scattered Clouds,50,2013-06-29 22:33:00
5:53 PM,78.8,51.8,39,29.96,10.0,NE,13.8,19.6,N/A,,Scattered Clouds,50,2013-06-29 22:53:00
6:12 PM,78.8,53.6,42,29.96,10.0,ENE,9.2,-,N/A,,Scattered Clouds,70,2013-06-29 23:12:00
6:33 PM,78.8,55.4,44,29.96,10.0,East,9.2,-,N/A,,Scattered Clouds,80,2013-06-29 23:33:00
6:53 PM,78.8,53.6,42,29.96,10.0,East,10.4,-,N/A,,Scattered Clouds,80,2013-06-29 23:53:00
7:12 PM,75.2,55.4,50,29.97,10.0,East,6.9,16.1,N/A,,Scattered Clouds,80,2013-06-30 00:12:00
7:33 PM,75.2,53.6,47,29.97,10.0,East,8.1,-,N/A,,Scattered Clouds,80,2013-06-30 00:33:00
7:52 PM,73.4,53.6,50,29.98,10.0,East,8.1,-,N/A,,Clear,90,2013-06-30 00:52:00
8:12 PM,73.4,53.6,50,29.97,10.0,East,6.9,-,N/A,,Clear,90,2013-06-30 01:12:00
8:33 PM,71.6,53.6,53,29.97,10.0,East,5.8,-,N/A,,Clear,90,2013-06-30 01:33:00
8:52 PM,69.8,53.6,56,29.98,10.0,East,6.9,-,N/A,,Clear,90,2013-06-30 01:52:00
9:12 PM,69.8,51.8,53,29.98,10.0,East,6.9,-,N/A,,Clear,90,2013-06-30 02:12:00
9:33 PM,68.0,51.8,56,29.99,10.0,East,4.6,-,N/A,,Clear,90,2013-06-30 02:33:00
9:52 PM,66.2,51.8,60,30.00,10.0,East,4.6,-,N/A,,Clear,90,2013-06-30 02:52:00
10:13 PM,66.2,51.8,60,30.01,10.0,East,4.6,-,N/A,,Clear,90,2013-06-30 03:13:00
10:33 PM,66.2,51.8,60,30.01,10.0,East,3.5,-,N/A,,Clear,90,2013-06-30 03:33:00
10:52 PM,66.2,51.8,60,30.01,10.0,Calm,Calm,-,N/A,,Clear,0,2013-06-30 03:52:00
11:13 PM,64.4,51.8,64,30.02,10.0,Calm,Calm,-,N/A,,Clear,0,2013-06-30 04:13:00
11:33 PM,62.6,51.8,68,30.03,10.0,Calm,Calm,-,N/A,,Clear,0,2013-06-30 04:33:00
11:52 PM,62.6,51.8,68,30.03,10.0,Calm,Calm,-,N/A,,Clear,0,2013-06-30 04:52:00